Showing default

LEMUR 2 VALHALLA, 58900

Orbit data source: Space-Track

LEMUR 2 VALHALLA, 58900 is an American payload satellite in SSO that was launched on Wed, 31 Jan 2024 UTC via an ELECTRON launch vehicle from the Rocket Lab Launch Complex (RLLC). Payload-class satellites include a variety of spacecraft equipped with specific instruments for various scientific and technological missions. These include communications satellites like Starlink; space stations such as the ISS; scientific satellites like the Hubble; Earth observation satellites from companies like Planet Labs, Umbra, and HawkEye 360; GPS; miniature CubeSats for education and research; and military/defense satellites.

Loading next visibility...
Identifier
58900, 2024-022B
Orbit
SSO
Country
Flag of USUS
Related business
Manufacturer
Spire/Glasgow
Mission
Operational Commercial Early Warn
Bus & Motor
CUBESAT 3U, Unknown motor
Mass
~25 kg wet, ~25 kg dry
Launch date (UTC)
2024-01-31 (2 years ago)
Launch vehicle
ELECTRON
Launch site
Rocket Lab Launch Complex (RLLC)
Object type
Payload
Rocket body
Debris
Shape & HBR
Box + 2 Pan, 0.5 m
Radar Cross Section
0.146 m², Medium (>0.1 m² and < 1m²)

Expand to show TLE details & history
Last TLE update: 20 hours ago

TLE from 20 hours ago
0 LEMUR 2 VALHALLA
1 58900U 24022B   25350.09188685  .00011721  00000-0  36584-3 0  9993
2 58900  97.4268 193.4614 0012161  54.6482 305.5895 15.33292097104155
Epoch: 2025-12-16T02:12Z
TLE epoch observation values (Epoch: 2025-12-16T02:12:19.023Z)
Latitude
-0.00005°
Longitude
75.40108°
Altitude
464.268 km
Speed
7.637 km/s
True Right ascension
12h 53m 50s
True Declination
0° 00' 00"
Sunlit
Object was in daylight at epoch
Visualization orbit readout
Latitude
Unknown
Longitude
Unknown
Altitude
Unknown
Speed
Unknown
Apparent Right ascension
Unknown
Apparent Declination
Unknown
Sunlit
N/A
Visualization observer readout
Local Sidereal Time
21:11:47
Azimuth
Unknown
Elevation
Unknown
Doppler factor
Unknown
Orbital elements
Apogee altitude
471.267 km
Perigee altitude
454.628 km
Semi-major axis
6,841.084 km
Eccentricity
0.00122
Inclination
97.4268°
RAAN
193.4614°
Arg. of periapsis
54.6482°
True anomaly
305.47608°
Mean anomaly
305.5895°
Eccentric anomaly
305.5328°
Mean motion
3.8358 °/min
Orbital period
93.85 mins
BSTAR
0.00036584
Loading maneuver chart data...
Computing Atmospheric mass density...
Loading historical data...
Loading historical data...
Loading historical data...
Loading historical data...
Loading historical data...
Loading historical data...
Loading historical data...

Documentation

Showing up to 5 results
|